Torna al catalogo

YAOGAN 17B

AttivoMilitareLEO
NORAD 39240·PAYLOAD·🇨🇳 China

Lanciato Sep 1, 2013 da Jiuquan Satellite Launch Center

Loading…

Prossimi Passaggi (prossime 24 ore)

TLE

AggiornatoSource: Space-Track

Epoca: Sep 14, 2026, 14:39 UTC

1 39240U 13046B   26257.61050484  .00000021  00000-0  10631-3 0  9999
2 39240  63.3846 220.1906 0434219  11.8258 349.2579 13.45480048640363

Traccia YAOGAN 17B in tempo reale con AllMySat

Download on the App Store